Content
SEND FEEDBACK

Daily
Averages
Monthly
Summary
Turkmenistan

KURTILE, TURKMENISTAN


Home > Asia > Turkmenistan
Elevation: 748 feet     Latitude: 37 58N     Longitude: 058 19E

WEATHER
 
SELECT A DAY
Number of Records: 180,407;   Date Range: 3/15/97 - 9/30/14
 
SHARE

PRINT THIS DATA

[ ← Previous Day ]
WEATHER ALMANAC - MAY 22, 2013
[ Next Day → ]
[ °C ]   °F
Weather ElementAverageHighLow
Temperature69.8 °F82.4 °F (4:00 pm)53.6 °F (6:00 am)
Dewpoint46.7 °F55.4 °F (3:00 pm)41 °F (12:00 pm)
Humidity45.6 %88 % (6:00 am)18 % (5:00 pm)
Barometer29.96 in30.05 in (2:00 am)29.88 in (8:00 pm)
Wind Speed6.6 mph15.7 mph (11:00 am)
Weather ElementAverage
Visibility6.1 mi
Wind DirectionESE (117.9 °)

Weather ElementTotal
Precipitation---
Cooling Degree Days3 (Base 65)
Growing Degree Days18 (Base 50)
Averaged from 31 records on May 22, 2013
WEATHER CONDITIONS BREAKOUT
WIND DIRECTION BREAKOUT
WEATHER BY HOUR - MAY 22, 2013
[ °C ]   °F
Local TimeTemperatureDewpointHumidityBarometerVisibilityWind DirectionWind SpeedGust SpeedPrecipitationEventsConditions
1:00 AM57.2 °F48.2 °F72 %30.04 in6.2 miESE (120°)6.7 mphClear
2:00 AM57.0 °F49.0 °F66 %30.05 in6.0 miESE (110°)8.9 mph
2:00 AM59.0 °F46.4 °F63 %30.01 in6.2 miESE (110°)8.9 mphClear
3:00 AM59.0 °F42.8 °F55 %30.01 in6.2 miESE (110°)6.7 mphClear
4:00 AM57.2 °F44.6 °F63 %30.01 in6.2 miCalmClear
5:00 AM56.0 °F49.0 °F70 %30.01 in6.0 miCalm
5:00 AM55.4 °F48.2 °F77 %29.98 in6.2 miWest (260°)2.2 mphClear
6:00 AM53.6 °F50.0 °F88 %29.98 in6.2 miSSW (210°)4.5 mphScattered Clouds
7:00 AM57.2 °F51.8 °F82 %30.01 in6.2 miVariable2.2 mphMostly Cloudy
8:00 AM61.0 °F50.0 °F59 %30.02 in6.0 miCalmOvercast
8:00 AM64.4 °F50.0 °F59 %30.01 in6.2 miCalmOvercast
9:00 AM66.2 °F50.0 °F56 %29.98 in6.2 miENE (60°)4.5 mphScattered Clouds
10:00 AM69.8 °F44.6 °F40 %29.98 in6.2 miEast (90°)8.9 mphScattered Clouds
11:00 AM72.0 °F42.0 °F23 %29.99 in6.0 miEast (90°)15.7 mphClear
11:00 AM73.4 °F42.8 °F33 %29.98 in6.2 miEast (100°)15.7 mphScattered Clouds
12:00 PM77.0 °F41.0 °F28 %29.95 in6.2 miESE (120°)13.4 mphPartly Cloudy
1:00 PM78.8 °F41.0 °F26 %29.95 in6.2 miEast (90°)11.2 mphMostly Cloudy
2:00 PM79.0 °F45.0 °F20 %29.94 in6.0 miSE (130°)8.9 mphPartly Cloudy
2:00 PM78.8 °F41.0 °F26 %29.95 in6.2 miESE (110°)8.9 mphMostly Cloudy
3:00 PM75.2 °F55.4 °F50 %29.92 in6.2 miEast (90°)11.2 mphRain-ThunderstormLight Thunderstorms and Rain
4:00 PM82.4 °F46.4 °F28 %29.92 in6.2 miNNE (30°)4.5 mphMostly Cloudy
5:00 PM82.0 °F46.0 °F18 %29.89 in6.0 miEast (80°)6.7 mphPartly Cloudy
5:00 PM82.4 °F41.0 °F23 %29.89 in6.2 miEast (90°)8.9 mphMostly Cloudy
6:00 PM82.4 °F41.0 °F23 %29.89 in6.2 miEast (90°)8.9 mphMostly Cloudy
7:00 PM82.4 °F42.8 °F25 %29.89 in6.2 miEast (90°)8.9 mphMostly Cloudy
8:00 PM79.0 °F48.0 °F23 %29.88 in6.0 miEast (90°)4.5 mphScattered Clouds
8:00 PM78.8 °F44.6 °F30 %29.89 in6.2 miEast (100°)4.5 mphScattered Clouds
9:00 PM75.2 °F48.2 °F38 %29.89 in6.2 miSSE (150°)4.5 mphPartly Cloudy
10:00 PM73.4 °F50.0 °F44 %29.92 in5.6 miWSW (240°)4.5 mphScattered Clouds
11:00 PM71.0 °F53.0 °F43 %29.92 in6.0 miNNW (330°)4.5 mphClear
11:00 PM68.0 °F55.4 °F64 %29.92 in6.2 miNNW (330°)4.5 mphPartly Cloudy
Hourly data recorded from UTAA, located miles away from Kurtile, Turkmenistan







STORIES FROM OUR PARTNERS